| time (UTC) | temp F | wind direction | speed knots | gust knots | rain 1hr in | rain 24hr in | rain mn in | humidity % | barometer mb |
| 20260507064020 | 71 | 102 | 2.6 | 3.5 | 0.00 | 0.00 | 0.00 | 40 | 1003.0 |
| 20260507063520 | 71 | 173 | 1.7 | 5.2 | 0.00 | 0.00 | 0.00 | 40 | 1003.0 |
| 20260507063021 | 70 | 117 | 4.3 | 4.3 | 0.00 | 0.00 | 0.00 | 44 | 1003.0 |
| 20260507062522 | 69 | 191 | 2.6 | 3.5 | 0.00 | 0.00 | 0.00 | 46 | 1003.0 |
| 20260507062022 | 68 | 73 | 3.5 | 6.1 | 0.00 | 0.00 | 0.00 | 46 | 1003.0 |
| 20260507061522 | 67 | 84 | 7.0 | 7.0 | 0.00 | 0.00 | 0.00 | 46 | 1003.0 |
| 20260507061021 | 66 | 110 | 6.1 | 8.7 | 0.00 | 0.00 | 0.00 | 48 | 1003.0 |
| 20260507060521 | 67 | 62 | 7.0 | 7.0 | 0.00 | 0.00 | 0.00 | 48 | 1003.0 |
| 20260507060021 | 67 | 95 | 3.5 | 7.0 | 0.00 | 0.00 | 0.00 | 48 | 1003.0 |
| 20260507055520 | 66 | 174 | 3.5 | 5.2 | 0.00 | 0.00 | 0.00 | 48 | 1003.0 |
| 20260507055020 | 65 | 65 | 4.3 | 7.8 | 0.00 | 0.00 | 0.00 | 50 | 1003.0 |
| 20260507054520 | 66 | 124 | 1.7 | 3.5 | 0.00 | 0.00 | 0.00 | 49 | 1003.0 |
| 20260507054021 | 64 | 61 | 6.1 | 6.1 | 0.00 | 0.00 | 0.00 | 50 | 1003.0 |
| 20260507053520 | 64 | 100 | 6.1 | 6.1 | 0.00 | 0.00 | 0.00 | 51 | 1003.0 |
| 20260507053020 | 63 | 82 | 3.5 | 6.1 | 0.00 | 0.00 | 0.00 | 52 | 1003.0 |
| 20260507052520 | 64 | 78 | 0.9 | 1.7 | 0.00 | 0.00 | 0.00 | 52 | 1003.0 |
| 20260507052020 | 64 | 117 | 0.0 | 1.7 | 0.00 | 0.00 | 0.00 | 53 | 1003.0 |
| 20260507051523 | 63 | 130 | 3.5 | 4.3 | 0.00 | 0.00 | 0.00 | 54 | 1003.0 |
| 20260507051021 | 63 | 110 | 2.6 | 3.5 | 0.00 | 0.00 | 0.00 | 54 | 1003.0 |
| 20260507050520 | 62 | 107 | 3.5 | 4.3 | 0.00 | 0.00 | 0.00 | 57 | 1003.0 |
| 20260507050022 | 61 | 80 | 3.5 | 3.5 | 0.00 | 0.00 | 0.00 | 57 | 1003.0 |
| 20260507045521 | 61 | 123 | 0.9 | 3.5 | 0.00 | 0.00 | 0.00 | 58 | 1003.0 |
| 20260507045020 | 59 | 81 | 5.2 | 5.2 | 0.00 | 0.00 | 0.00 | 59 | 1003.0 |
| 20260507044520 | 59 | 104 | 3.5 | 6.1 | 0.00 | 0.00 | 0.00 | 59 | 1003.0 |
| 20260507044020 | 59 | 131 | 4.3 | 4.3 | 0.00 | 0.00 | 0.00 | 61 | 1003.0 |
| 20260507043522 | 59 | 135 | 1.7 | 3.5 | 0.00 | 0.00 | 0.00 | 61 | 1003.0 |
| 20260507043021 | 58 | 113 | 4.3 | 5.2 | 0.00 | 0.00 | 0.00 | 61 | 1003.0 |
| 20260507042521 | 58 | 112 | 5.2 | 5.2 | 0.00 | 0.00 | 0.00 | 61 | 1003.0 |
| 20260507042021 | 57 | 90 | 7.0 | 7.8 | 0.00 | 0.00 | 0.00 | 62 | 1003.0 |
| 20260507041521 | 58 | 155 | 1.7 | 2.6 | 0.00 | 0.00 | 0.00 | 61 | 1003.0 |
| 20260507041021 | 57 | 106 | 2.6 | 3.5 | 0.00 | 0.00 | 0.00 | 62 | 1003.0 |
| 20260507040520 | 56 | 131 | 4.3 | 5.2 | 0.00 | 0.00 | 0.00 | 63 | 1003.0 |
| 20260507040020 | 57 | 119 | 4.3 | 6.1 | 0.00 | 0.00 | 0.00 | 62 | 1003.0 |
| 20260507035520 | 57 | 75 | 2.6 | 3.5 | 0.00 | 0.00 | 0.00 | 62 | 1003.0 |
| 20260507035021 | 57 | 119 | 0.9 | 1.7 | 0.00 | 0.00 | 0.00 | 62 | 1003.0 |
| 20260507034521 | 56 | 84 | 3.5 | 4.3 | 0.00 | 0.00 | 0.00 | 62 | 1003.0 |
| 20260507034021 | 56 | 86 | 4.3 | 4.3 | 0.00 | 0.00 | 0.00 | 63 | 1003.0 |
| 20260507033520 | 56 | 88 | 3.5 | 3.5 | 0.00 | 0.00 | 0.00 | 63 | 1002.0 |
| 20260507033021 | 56 | 107 | 0.9 | 0.9 | 0.00 | 0.00 | 0.00 | 63 | 1002.0 |
| 20260507032521 | 56 | 105 | 0.9 | 1.7 | 0.00 | 0.00 | 0.00 | 63 | 1002.0 |
| 20260507032020 | 56 | 98 | 1.7 | 1.7 | 0.00 | 0.00 | 0.00 | 63 | 1002.0 |
| 20260507031520 | 55 | 106 | 4.3 | 4.3 | 0.00 | 0.00 | 0.00 | 64 | 1002.0 |
| 20260507031020 | 55 | 140 | 1.7 | 2.6 | 0.00 | 0.00 | 0.00 | 65 | 1002.0 |
| 20260507030520 | 54 | 127 | 2.6 | 2.6 | 0.00 | 0.00 | 0.00 | 65 | 1002.0 |
| 20260507030020 | 55 | 90 | 1.7 | 1.7 | 0.00 | 0.00 | 0.00 | 65 | 1002.0 |
| 20260507025520 | 55 | 88 | 0.0 | 0.0 | 0.00 | 0.00 | 0.00 | 65 | 1002.0 |
| 20260507025021 | 55 | 114 | 1.7 | 2.6 | 0.00 | 0.00 | 0.00 | 64 | 1002.0 |
| 20260507024520 | 55 | 136 | 2.6 | 2.6 | 0.00 | 0.00 | 0.00 | 63 | 1002.0 |
| 20260507024023 | 55 | 108 | 0.9 | 0.9 | 0.00 | 0.00 | 0.00 | 63 | 1002.0 |
| 20260507023523 | 55 | 137 | 0.0 | 0.0 | 0.00 | 0.00 | 0.00 | 62 | 1002.0 |
| 20260507023021 | 55 | 146 | 0.9 | 0.9 | 0.00 | 0.00 | 0.00 | 61 | 1002.0 |
| 20260507022521 | 56 | 116 | 0.9 | 0.9 | 0.00 | 0.00 | 0.00 | 60 | 1002.0 |
| 20260507022020 | 56 | 112 | 0.0 | 0.0 | 0.00 | 0.00 | 0.00 | 59 | 1002.0 |
| 20260507021521 | 57 | 124 | 0.9 | 0.9 | 0.00 | 0.00 | 0.00 | 58 | 1002.0 |
| 20260507021020 | 57 | 129 | 0.9 | 0.9 | 0.00 | 0.00 | 0.00 | 57 | 1002.0 |
| 20260507020522 | 58 | 90 | 2.6 | 2.6 | 0.00 | 0.00 | 0.00 | 56 | 1002.0 |
| 20260507020020 | 58 | 123 | 0.9 | 1.7 | 0.00 | 0.00 | 0.00 | 53 | 1002.0 |
| 20260507015522 | 59 | 75 | 0.9 | 0.9 | 0.00 | 0.00 | 0.00 | 52 | 1002.0 |
| 20260507015021 | 59 | 106 | 2.6 | 2.6 | 0.00 | 0.00 | 0.00 | 51 | 1002.0 |
| 20260507014520 | 60 | 95 | 2.6 | 4.3 | 0.00 | 0.00 | 0.00 | 49 | 1002.0 |
| 20260507014020 | 60 | 90 | 3.5 | 3.5 | 0.00 | 0.00 | 0.00 | 48 | 1002.0 |
| 20260507013520 | 60 | 146 | 1.7 | 3.5 | 0.00 | 0.00 | 0.00 | 48 | 1002.0 |
| 20260507013020 | 60 | 131 | 2.6 | 2.6 | 0.00 | 0.00 | 0.00 | 47 | 1002.0 |
| 20260507012521 | 60 | 150 | 2.6 | 2.6 | 0.00 | 0.00 | 0.00 | 47 | 1002.0 |
| 20260507012020 | 61 | 125 | 1.7 | 3.5 | 0.00 | 0.00 | 0.00 | 46 | 1002.0 |
| 20260507011521 | 61 | 93 | 2.6 | 4.3 | 0.00 | 0.00 | 0.00 | 46 | 1002.0 |
| 20260507011021 | 61 | 137 | 1.7 | 1.7 | 0.00 | 0.00 | 0.00 | 46 | 1002.0 |
| 20260507010520 | 61 | 146 | 3.5 | 4.3 | 0.00 | 0.00 | 0.00 | 45 | 1002.0 |
| 20260507010021 | 61 | 155 | 2.6 | 2.6 | 0.00 | 0.00 | 0.00 | 45 | 1002.0 |
| 20260507005520 | 62 | 155 | 3.5 | 4.3 | 0.00 | 0.00 | 0.00 | 45 | 1002.0 |
| 20260507005022 | 62 | 118 | 4.3 | 6.1 | 0.00 | 0.00 | 0.00 | 45 | 1002.0 |
| 20260507004520 | 62 | 96 | 2.6 | 2.6 | 0.00 | 0.00 | 0.00 | 45 | 1002.0 |
| 20260507004021 | 62 | 135 | 2.6 | 2.6 | 0.00 | 0.00 | 0.00 | 45 | 1002.0 |
| 20260507003520 | 62 | 124 | 1.7 | 4.3 | 0.00 | 0.00 | 0.00 | 45 | 1002.0 |
| 20260507003021 | 62 | 126 | 6.1 | 7.0 | 0.00 | 0.00 | 0.00 | 45 | 1002.0 |
| 20260507002520 | 61 | 116 | 1.7 | 4.3 | 0.00 | 0.00 | 0.00 | 45 | 1002.0 |
| 20260507002020 | 62 | 157 | 3.5 | 4.3 | 0.00 | 0.00 | 0.00 | 45 | 1002.0 |
| 20260507001521 | 62 | 154 | 2.6 | 3.5 | 0.00 | 0.00 | 0.00 | 45 | 1002.0 |
| 20260507001020 | 62 | 230 | 3.5 | 3.5 | 0.00 | 0.00 | 0.00 | 44 | 1002.0 |
| 20260507000521 | 62 | 118 | 5.2 | 9.6 | 0.00 | 0.00 | 0.00 | 44 | 1002.0 |
| 20260507000022 | 62 | 122 | 5.2 | 5.2 | 0.00 | 0.00 | 0.00 | 44 | 1002.0 |
| 20260506235520 | 62 | 124 | 1.7 | 5.2 | 0.00 | 0.00 | 0.00 | 44 | 1002.0 |
| 20260506235020 | 62 | 178 | 3.5 | 4.3 | 0.00 | 0.00 | 0.00 | 43 | 1002.0 |
| 20260506234520 | 63 | 174 | 4.3 | 7.8 | 0.00 | 0.00 | 0.00 | 43 | 1002.0 |
| 20260506234020 | 62 | 172 | 2.6 | 3.5 | 0.00 | 0.00 | 0.00 | 43 | 1002.0 |
| 20260506233520 | 62 | 122 | 6.1 | 7.8 | 0.00 | 0.00 | 0.00 | 44 | 1002.0 |
| 20260506233021 | 62 | 109 | 1.7 | 2.6 | 0.00 | 0.00 | 0.00 | 44 | 1002.0 |
| 20260506232520 | 63 | 147 | 2.6 | 3.5 | 0.00 | 0.00 | 0.00 | 44 | 1002.0 |
| 20260506232022 | 63 | 150 | 6.1 | 7.0 | 0.00 | 0.00 | 0.00 | 44 | 1002.0 |
| 20260506231521 | 63 | 152 | 4.3 | 4.3 | 0.00 | 0.00 | 0.00 | 44 | 1002.0 |
| 20260506231020 | 63 | 112 | 5.2 | 5.2 | 0.00 | 0.00 | 0.00 | 45 | 1002.0 |
| 20260506230521 | 63 | 166 | 3.5 | 3.5 | 0.00 | 0.00 | 0.00 | 45 | 1002.0 |
| 20260506230020 | 63 | 171 | 5.2 | 9.6 | 0.00 | 0.00 | 0.00 | 45 | 1002.0 |
| 20260506225520 | 63 | 174 | 6.1 | 9.6 | 0.00 | 0.00 | 0.00 | 45 | 1002.0 |
| 20260506225021 | 63 | 134 | 2.6 | 2.6 | 0.00 | 0.00 | 0.00 | 46 | 1002.0 |
| 20260506224520 | 63 | 213 | 3.5 | 3.5 | 0.00 | 0.00 | 0.00 | 46 | 1002.0 |
| 20260506224020 | 63 | 163 | 1.7 | 3.5 | 0.00 | 0.00 | 0.00 | 47 | 1002.0 |
| 20260506223520 | 64 | 140 | 3.5 | 4.3 | 0.00 | 0.00 | 0.00 | 46 | 1002.0 |
| 20260506223021 | 64 | 141 | 3.5 | 6.1 | 0.00 | 0.00 | 0.00 | 47 | 1002.0 |
| 20260506222521 | 64 | 147 | 3.5 | 4.3 | 0.00 | 0.00 | 0.00 | 48 | 1002.0 |
| 20260506222021 | 64 | 196 | 2.6 | 4.3 | 0.00 | 0.00 | 0.00 | 49 | 1002.0 |
| 20260506221521 | 64 | 193 | 3.5 | 4.3 | 0.00 | 0.00 | 0.00 | 50 | 1002.0 |
| 20260506221023 | 64 | 138 | 4.3 | 6.1 | 0.00 | 0.00 | 0.00 | 50 | 1002.0 |
| 20260506220520 | 64 | 235 | 4.3 | 4.3 | 0.00 | 0.00 | 0.00 | 50 | 1002.0 |
| 20260506220020 | 64 | 217 | 2.6 | 3.5 | 0.00 | 0.00 | 0.00 | 50 | 1002.0 |
| 20260506215521 | 64 | 134 | 4.3 | 7.8 | 0.00 | 0.00 | 0.00 | 51 | 1002.0 |
| 20260506215020 | 64 | 167 | 4.3 | 5.2 | 0.00 | 0.00 | 0.00 | 51 | 1002.0 |
| 20260506214521 | 64 | 135 | 3.5 | 3.5 | 0.00 | 0.00 | 0.00 | 50 | 1001.0 |
| 20260506214021 | 65 | 180 | 2.6 | 2.6 | 0.00 | 0.00 | 0.00 | 50 | 1001.0 |
| 20260506213520 | 65 | 135 | 2.6 | 4.3 | 0.00 | 0.00 | 0.00 | 50 | 1001.0 |
| 20260506213021 | 65 | 172 | 4.3 | 8.7 | 0.00 | 0.00 | 0.00 | 49 | 1001.0 |
| 20260506212520 | 65 | 236 | 7.8 | 7.8 | 0.00 | 0.00 | 0.00 | 49 | 1001.0 |
| 20260506212020 | 65 | 205 | 6.1 | 8.7 | 0.00 | 0.00 | 0.00 | 49 | 1001.0 |
| 20260506211520 | 65 | 194 | 1.7 | 5.2 | 0.00 | 0.00 | 0.00 | 49 | 1001.0 |
| 20260506211020 | 65 | 98 | 3.5 | 5.2 | 0.00 | 0.00 | 0.00 | 49 | 1001.0 |
| 20260506210520 | 65 | 183 | 3.5 | 4.3 | 0.00 | 0.00 | 0.00 | 49 | 1001.0 |
| 20260506210020 | 66 | 204 | 6.1 | 6.1 | 0.00 | 0.00 | 0.00 | 49 | 1001.0 |
| 20260506205520 | 66 | 98 | 3.5 | 5.2 | 0.00 | 0.00 | 0.00 | 49 | 1001.0 |
| 20260506205020 | 66 | 140 | 4.3 | 8.7 | 0.00 | 0.00 | 0.00 | 48 | 1001.0 |
| 20260506204520 | 66 | 155 | 4.3 | 7.0 | 0.00 | 0.00 | 0.00 | 48 | 1001.0 |
| 20260506204021 | 66 | 153 | 5.2 | 8.7 | 0.00 | 0.00 | 0.00 | 47 | 1001.0 |
| 20260506203520 | 67 | 165 | 7.8 | 12.2 | 0.00 | 0.00 | 0.00 | 47 | 1001.0 |
| 20260506203020 | 67 | 232 | 6.1 | 8.7 | 0.00 | 0.00 | 0.00 | 47 | 1001.0 |
| 20260506202520 | 67 | 131 | 7.0 | 7.8 | 0.00 | 0.00 | 0.00 | 47 | 1001.0 |
| 20260506202024 | 67 | 136 | 5.2 | 7.8 | 0.00 | 0.00 | 0.00 | 46 | 1001.0 |
| 20260506201520 | 67 | 184 | 4.3 | 4.3 | 0.00 | 0.00 | 0.00 | 47 | 1001.0 |
| 20260506201023 | 67 | 195 | 6.1 | 7.8 | 0.00 | 0.00 | 0.00 | 45 | 1001.0 |
| 20260506200521 | 68 | 160 | 10.4 | 15.6 | 0.00 | 0.00 | 0.00 | 45 | 1001.0 |
| 20260506200021 | 68 | 151 | 2.6 | 6.1 | 0.00 | 0.00 | 0.00 | 45 | 1001.0 |
| 20260506195520 | 68 | 129 | 6.1 | 7.8 | 0.00 | 0.00 | 0.00 | 45 | 1001.0 |
| 20260506195022 | 68 | 139 | 5.2 | 7.0 | 0.00 | 0.00 | 0.00 | 44 | 1001.0 |
| 20260506194520 | 68 | 194 | 7.0 | 10.4 | 0.00 | 0.00 | 0.00 | 44 | 1001.0 |
| 20260506194021 | 69 | 208 | 5.2 | 7.0 | 0.00 | 0.00 | 0.00 | 43 | 1001.0 |
| 20260506193520 | 69 | 176 | 4.3 | 5.2 | 0.00 | 0.00 | 0.00 | 44 | 1001.0 |
| 20260506193021 | 69 | 151 | 7.0 | 9.6 | 0.00 | 0.00 | 0.00 | 43 | 1001.0 |
| 20260506192520 | 69 | 195 | 5.2 | 5.2 | 0.00 | 0.00 | 0.00 | 43 | 1001.0 |
| 20260506192020 | 69 | 163 | 4.3 | 5.2 | 0.00 | 0.00 | 0.00 | 43 | 1001.0 |
| 20260506191522 | 69 | 110 | 4.3 | 4.3 | 0.00 | 0.00 | 0.00 | 42 | 1001.0 |
| 20260506191021 | 70 | 147 | 7.0 | 7.0 | 0.00 | 0.00 | 0.00 | 42 | 1001.0 |
| 20260506190521 | 70 | 328 | 4.3 | 5.2 | 0.00 | 0.00 | 0.00 | 42 | 1001.0 |
| 20260506190022 | 70 | 190 | 4.3 | 5.2 | 0.00 | 0.00 | 0.00 | 42 | 1000.0 |
| 20260506185520 | 70 | 176 | 2.6 | 4.3 | 0.00 | 0.00 | 0.00 | 42 | 1000.0 |
| 20260506185020 | 70 | 198 | 5.2 | 7.0 | 0.00 | 0.00 | 0.00 | 42 | 1000.0 |
| 20260506184520 | 70 | 175 | 5.2 | 7.0 | 0.00 | 0.00 | 0.00 | 41 | 1000.0 |
| 20260506184020 | 70 | 182 | 5.2 | 5.2 | 0.00 | 0.00 | 0.00 | 42 | 1000.0 |
| 20260506183520 | 70 | 146 | 4.3 | 5.2 | 0.00 | 0.00 | 0.00 | 41 | 1000.0 |
| 20260506183021 | 71 | 135 | 3.5 | 8.7 | 0.00 | 0.00 | 0.00 | 41 | 1000.0 |
| 20260506182520 | 71 | 161 | 3.5 | 7.0 | 0.00 | 0.00 | 0.00 | 41 | 1000.0 |
| 20260506182020 | 71 | 149 | 4.3 | 4.3 | 0.00 | 0.00 | 0.00 | 41 | 1000.0 |
| 20260506181521 | 71 | 190 | 1.7 | 2.6 | 0.00 | 0.00 | 0.00 | 40 | 1000.0 |
| 20260506181021 | 71 | 187 | 6.1 | 6.1 | 0.00 | 0.00 | 0.00 | 40 | 1000.0 |
| 20260506180520 | 72 | 189 | 3.5 | 4.3 | 0.00 | 0.00 | 0.00 | 39 | 1000.0 |
| 20260506180021 | 72 | 152 | 1.7 | 2.6 | 0.00 | 0.00 | 0.00 | 39 | 1000.0 |
| 20260506175521 | 72 | 208 | 4.3 | 5.2 | 0.00 | 0.00 | 0.00 | 39 | 1000.0 |
| 20260506175022 | 73 | 149 | 5.2 | 7.0 | 0.00 | 0.00 | 0.00 | 38 | 1000.0 |
| 20260506174521 | 73 | 158 | 2.6 | 2.6 | 0.00 | 0.00 | 0.00 | 38 | 1000.0 |
| 20260506174021 | 73 | 217 | 3.5 | 6.1 | 0.00 | 0.00 | 0.00 | 38 | 1000.0 |
| 20260506173521 | 73 | 150 | 3.5 | 4.3 | 0.00 | 0.00 | 0.00 | 38 | 1000.0 |
| 20260506173021 | 73 | 186 | 1.7 | 2.6 | 0.00 | 0.00 | 0.00 | 37 | 1000.0 |
| 20260506172529 | 74 | 204 | 2.6 | 3.5 | 0.00 | 0.00 | 0.00 | 37 | 1000.0 |
| 20260506172020 | 74 | 145 | 3.5 | 5.2 | 0.00 | 0.00 | 0.00 | 36 | 1000.0 |
| 20260506171520 | 75 | 124 | 3.5 | 5.2 | 0.00 | 0.00 | 0.00 | 35 | 1000.0 |
| 20260506171020 | 75 | 151 | 1.7 | 2.6 | 0.00 | 0.00 | 0.00 | 35 | 1000.0 |
| 20260506170521 | 76 | 156 | 2.6 | 2.6 | 0.00 | 0.00 | 0.00 | 34 | 1000.0 |
| 20260506170021 | 76 | 164 | 3.5 | 4.3 | 0.00 | 0.00 | 0.00 | 34 | 1000.0 |
| 20260506165520 | 76 | 174 | 3.5 | 3.5 | 0.00 | 0.00 | 0.00 | 33 | 1000.0 |
| 20260506165021 | 77 | 186 | 6.1 | 7.0 | 0.00 | 0.00 | 0.00 | 32 | 1000.0 |
| 20260506164521 | 77 | 162 | 5.2 | 7.0 | 0.00 | 0.00 | 0.00 | 32 | 1000.0 |
| 20260506164021 | 78 | 189 | 7.0 | 11.3 | 0.00 | 0.00 | 0.00 | 32 | 1000.0 |
| 20260506163521 | 78 | 179 | 3.5 | 5.2 | 0.00 | 0.00 | 0.00 | 32 | 1000.0 |
| 20260506163022 | 78 | 155 | 2.6 | 3.5 | 0.00 | 0.00 | 0.00 | 31 | 1000.0 |
| 20260506162520 | 79 | 210 | 4.3 | 5.2 | 0.00 | 0.00 | 0.00 | 30 | 1000.0 |
| 20260506162021 | 79 | 190 | 5.2 | 6.1 | 0.00 | 0.00 | 0.00 | 29 | 1000.0 |
| 20260506161521 | 79 | 172 | 5.2 | 5.2 | 0.00 | 0.00 | 0.00 | 29 | 1000.0 |
| 20260506161021 | 79 | 150 | 3.5 | 4.3 | 0.00 | 0.00 | 0.00 | 29 | 1000.0 |
| 20260506160523 | 80 | 165 | 4.3 | 4.3 | 0.00 | 0.00 | 0.00 | 28 | 1000.0 |
| 20260506160022 | 79 | 126 | 3.5 | 6.1 | 0.00 | 0.00 | 0.00 | 29 | 1000.0 |
| 20260506155521 | 79 | 163 | 7.8 | 8.7 | 0.00 | 0.00 | 0.00 | 29 | 1000.0 |
| 20260506155022 | 79 | 178 | 8.7 | 8.7 | 0.00 | 0.00 | 0.00 | 29 | 1000.0 |
| 20260506154520 | 80 | 123 | 5.2 | 7.8 | 0.00 | 0.00 | 0.00 | 28 | 1000.0 |
| 20260506154021 | 80 | 129 | 7.0 | 9.6 | 0.00 | 0.00 | 0.00 | 28 | 1000.0 |
| 20260506153521 | 80 | 120 | 7.0 | 9.6 | 0.00 | 0.00 | 0.00 | 28 | 999.0 |
| 20260506153022 | 82 | 124 | 2.6 | 3.5 | 0.00 | 0.00 | 0.00 | 28 | 999.0 |
| 20260506152520 | 82 | 183 | 6.1 | 7.8 | 0.00 | 0.00 | 0.00 | 27 | 1000.0 |
| 20260506152022 | 82 | 126 | 3.5 | 4.3 | 0.00 | 0.00 | 0.00 | 27 | 1000.0 |
| 20260506151521 | 82 | 217 | 6.1 | 6.1 | 0.00 | 0.00 | 0.00 | 27 | 1000.0 |
| 20260506151022 | 83 | 109 | 4.3 | 4.3 | 0.00 | 0.00 | 0.00 | 26 | 1000.0 |
| 20260506150520 | 83 | 123 | 4.3 | 4.3 | 0.00 | 0.00 | 0.00 | 25 | 1000.0 |
| 20260506150022 | 83 | 136 | 6.1 | 9.6 | 0.00 | 0.00 | 0.00 | 26 | 1000.0 |
| 20260506145522 | 83 | 164 | 3.5 | 4.3 | 0.00 | 0.00 | 0.00 | 25 | 1000.0 |
| 20260506145026 | 83 | 111 | 5.2 | 7.0 | 0.00 | 0.00 | 0.00 | 26 | 1000.0 |
| 20260506144040 | 84 | 134 | 3.5 | 3.5 | 0.00 | 0.00 | 0.00 | 25 | 1000.0 |
| 20260506143520 | 84 | 202 | 1.7 | 2.6 | 0.00 | 0.00 | 0.00 | 26 | 1000.0 |
| 20260506143020 | 83 | 218 | 6.1 | 8.7 | 0.00 | 0.00 | 0.00 | 25 | 1000.0 |
| 20260506142521 | 83 | 219 | 5.2 | 7.8 | 0.00 | 0.00 | 0.00 | 25 | 1000.0 |
| 20260506142021 | 85 | 210 | 3.5 | 3.5 | 0.00 | 0.00 | 0.00 | 24 | 1000.0 |
| 20260506141521 | 85 | 120 | 2.6 | 2.6 | 0.00 | 0.00 | 0.00 | 24 | 1000.0 |
| 20260506141021 | 84 | 207 | 4.3 | 5.2 | 0.00 | 0.00 | 0.00 | 24 | 1000.0 |
| 20260506140520 | 85 | 214 | 4.3 | 4.3 | 0.00 | 0.00 | 0.00 | 24 | 1000.0 |
| 20260506140021 | 84 | 222 | 3.5 | 4.3 | 0.00 | 0.00 | 0.00 | 24 | 1000.0 |
| 20260506135521 | 84 | 211 | 4.3 | 4.3 | 0.00 | 0.00 | 0.00 | 25 | 1000.0 |
| 20260506135020 | 85 | 229 | 3.5 | 3.5 | 0.00 | 0.00 | 0.00 | 24 | 1000.0 |
| 20260506134521 | 84 | 170 | 5.2 | 7.8 | 0.00 | 0.00 | 0.00 | 25 | 1000.0 |
| 20260506134021 | 84 | 163 | 6.1 | 6.1 | 0.00 | 0.00 | 0.00 | 25 | 1000.0 |
| 20260506133522 | 85 | 98 | 3.5 | 4.3 | 0.00 | 0.00 | 0.00 | 24 | 1000.0 |
| 20260506133021 | 85 | 180 | 7.0 | 7.0 | 0.00 | 0.00 | 0.00 | 24 | 1000.0 |
| 20260506132520 | 85 | 171 | 5.2 | 6.1 | 0.00 | 0.00 | 0.00 | 24 | 1000.0 |
| 20260506132021 | 85 | 201 | 2.6 | 3.5 | 0.00 | 0.00 | 0.00 | 25 | 1000.0 |
| 20260506131521 | 84 | 193 | 9.6 | 13.0 | 0.00 | 0.00 | 0.00 | 24 | 1000.0 |
| 20260506131022 | 85 | 204 | 6.1 | 8.7 | 0.00 | 0.00 | 0.00 | 24 | 1000.0 |
| 20260506130521 | 85 | 132 | 3.5 | 5.2 | 0.00 | 0.00 | 0.00 | 24 | 1000.0 |
| 20260506130021 | 85 | 103 | 3.5 | 4.3 | 0.00 | 0.00 | 0.00 | 24 | 1000.0 |
| 20260506125522 | 85 | 199 | 4.3 | 7.0 | 0.00 | 0.00 | 0.00 | 24 | 1000.0 |
| 20260506125020 | 85 | 162 | 7.8 | 12.2 | 0.00 | 0.00 | 0.00 | 24 | 1000.0 |
| 20260506124521 | 85 | 144 | 7.0 | 8.7 | 0.00 | 0.00 | 0.00 | 24 | 1000.0 |
| 20260506124022 | 85 | 206 | 4.3 | 4.3 | 0.00 | 0.00 | 0.00 | 24 | 1000.0 |
| 20260506123524 | 84 | 190 | 7.0 | 7.8 | 0.00 | 0.00 | 0.00 | 24 | 1000.0 |
| 20260506123022 | 85 | 180 | 5.2 | 6.1 | 0.00 | 0.00 | 0.00 | 25 | 1000.0 |
| 20260506122521 | 86 | 148 | 2.6 | 5.2 | 0.00 | 0.00 | 0.00 | 23 | 1000.0 |
| 20260506122021 | 85 | 132 | 4.3 | 7.8 | 0.00 | 0.00 | 0.00 | 23 | 1000.0 |
| 20260506121520 | 86 | 138 | 1.7 | 5.2 | 0.00 | 0.00 | 0.00 | 23 | 1000.0 |
| 20260506121021 | 85 | 219 | 3.5 | 4.3 | 0.00 | 0.00 | 0.00 | 23 | 1000.0 |
| 20260506120522 | 84 | 129 | 7.0 | 8.7 | 0.00 | 0.00 | 0.00 | 23 | 1000.0 |
| 20260506120021 | 85 | 213 | 5.2 | 5.2 | 0.00 | 0.00 | 0.00 | 23 | 1000.0 |
| 20260506115520 | 84 | 210 | 8.7 | 12.2 | 0.00 | 0.00 | 0.00 | 24 | 1000.0 |
| 20260506115021 | 84 | 214 | 4.3 | 4.3 | 0.00 | 0.00 | 0.00 | 23 | 1000.0 |
| 20260506114521 | 84 | 209 | 5.2 | 5.2 | 0.00 | 0.00 | 0.00 | 24 | 1000.0 |
| 20260506114020 | 85 | 77 | 2.6 | 5.2 | 0.00 | 0.00 | 0.00 | 24 | 1000.0 |
| 20260506113520 | 85 | 168 | 5.2 | 5.2 | 0.00 | 0.00 | 0.00 | 23 | 1000.0 |
| 20260506113020 | 85 | 218 | 3.5 | 4.3 | 0.00 | 0.00 | 0.00 | 24 | 1000.0 |
| 20260506112520 | 83 | 131 | 4.3 | 5.2 | 0.00 | 0.00 | 0.00 | 23 | 1000.0 |
| 20260506112020 | 84 | 181 | 4.3 | 4.3 | 0.00 | 0.00 | 0.00 | 24 | 1000.0 |
| 20260506111520 | 84 | 270 | 4.3 | 6.1 | 0.00 | 0.00 | 0.00 | 23 | 1000.0 |
| 20260506111023 | 85 | 187 | 1.7 | 5.2 | 0.00 | 0.00 | 0.00 | 24 | 1000.0 |
| 20260506110520 | 85 | 115 | 2.6 | 5.2 | 0.00 | 0.00 | 0.00 | 24 | 1000.0 |
| 20260506110021 | 85 | 174 | 3.5 | 4.3 | 0.00 | 0.00 | 0.00 | 24 | 1000.0 |
| 20260506105521 | 84 | 180 | 4.3 | 4.3 | 0.00 | 0.00 | 0.00 | 24 | 1000.0 |
| 20260506105022 | 83 | 122 | 1.7 | 4.3 | 0.00 | 0.00 | 0.00 | 24 | 1000.0 |
| 20260506104522 | 85 | 133 | 1.7 | 3.5 | 0.00 | 0.00 | 0.00 | 24 | 1000.0 |
| 20260506104020 | 83 | 163 | 6.1 | 6.1 | 0.00 | 0.00 | 0.00 | 25 | 1000.0 |
| 20260506103520 | 83 | 61 | 5.2 | 6.1 | 0.00 | 0.00 | 0.00 | 26 | 1000.0 |
| 20260506103022 | 82 | 222 | 7.8 | 8.7 | 0.00 | 0.00 | 0.00 | 26 | 1000.0 |
| 20260506102520 | 83 | 167 | 2.6 | 6.1 | 0.00 | 0.00 | 0.00 | 26 | 1000.0 |
| 20260506102020 | 84 | 232 | 3.5 | 4.3 | 0.00 | 0.00 | 0.00 | 26 | 1001.0 |
| 20260506101520 | 82 | 238 | 3.5 | 4.3 | 0.00 | 0.00 | 0.00 | 26 | 1001.0 |
| 20260506101021 | 83 | 214 | 4.3 | 4.3 | 0.00 | 0.00 | 0.00 | 27 | 1001.0 |
| 20260506100520 | 83 | 221 | 4.3 | 7.8 | 0.00 | 0.00 | 0.00 | 26 | 1001.0 |
| 20260506100022 | 83 | 197 | 4.3 | 8.7 | 0.00 | 0.00 | 0.00 | 28 | 1001.0 |
| 20260506095520 | 82 | 197 | 2.6 | 7.0 | 0.00 | 0.00 | 0.00 | 29 | 1001.0 |
| 20260506095020 | 83 | 114 | 3.5 | 5.2 | 0.00 | 0.00 | 0.00 | 26 | 1001.0 |
| 20260506094521 | 83 | 194 | 2.6 | 3.5 | 0.00 | 0.00 | 0.00 | 29 | 1001.0 |
| 20260506094020 | 83 | 215 | 2.6 | 5.2 | 0.00 | 0.00 | 0.00 | 28 | 1001.0 |
| 20260506093521 | 83 | 222 | 1.7 | 5.2 | 0.00 | 0.00 | 0.00 | 28 | 1001.0 |
| 20260506093020 | 83 | 174 | 3.5 | 4.3 | 0.00 | 0.00 | 0.00 | 29 | 1001.0 |
| 20260506092521 | 82 | 197 | 7.8 | 7.8 | 0.00 | 0.00 | 0.00 | 29 | 1001.0 |
| 20260506092021 | 83 | 167 | 1.7 | 1.7 | 0.00 | 0.00 | 0.00 | 28 | 1001.0 |
| 20260506091520 | 82 | 116 | 1.7 | 2.6 | 0.00 | 0.00 | 0.00 | 29 | 1001.0 |
| 20260506091020 | 82 | 181 | 2.6 | 2.6 | 0.00 | 0.00 | 0.00 | 29 | 1001.0 |
| 20260506090521 | 82 | 214 | 2.6 | 2.6 | 0.00 | 0.00 | 0.00 | 29 | 1001.0 |
| 20260506090020 | 83 | 171 | 1.7 | 1.7 | 0.00 | 0.00 | 0.00 | 30 | 1001.0 |
| 20260506085521 | 80 | 123 | 7.0 | 7.8 | 0.00 | 0.00 | 0.00 | 30 | 1001.0 |
| 20260506085021 | 81 | 123 | 1.7 | 2.6 | 0.00 | 0.00 | 0.00 | 29 | 1001.0 |
| 20260506084520 | 79 | 100 | 5.2 | 7.0 | 0.00 | 0.00 | 0.00 | 31 | 1001.0 |
| 20260506084020 | 79 | 217 | 1.7 | 2.6 | 0.00 | 0.00 | 0.00 | 32 | 1001.0 |
| 20260506083520 | 79 | 168 | 4.3 | 6.1 | 0.00 | 0.00 | 0.00 | 32 | 1001.0 |
| 20260506083020 | 78 | 198 | 2.6 | 3.5 | 0.00 | 0.00 | 0.00 | 32 | 1001.0 |
| 20260506082520 | 77 | 100 | 3.5 | 6.1 | 0.00 | 0.00 | 0.00 | 33 | 1001.0 |
| 20260506082020 | 78 | 109 | 2.6 | 4.3 | 0.00 | 0.00 | 0.00 | 33 | 1001.0 |
| 20260506081520 | 77 | 126 | 3.5 | 3.5 | 0.00 | 0.00 | 0.00 | 33 | 1001.0 |
| 20260506081021 | 78 | 140 | 2.6 | 3.5 | 0.00 | 0.00 | 0.00 | 33 | 1001.0 |
| 20260506080520 | 77 | 114 | 1.7 | 1.7 | 0.00 | 0.00 | 0.00 | 33 | 1001.0 |
| 20260506073520 | 76 | 159 | 1.7 | 1.7 | 0.00 | 0.00 | 0.00 | 33 | 1001.0 |
| 20260506073021 | 76 | 156 | 1.7 | 1.7 | 0.00 | 0.00 | 0.00 | 34 | 1001.0 |
| 20260506072520 | 74 | 88 | 0.9 | 2.6 | 0.00 | 0.00 | 0.00 | 36 | 1001.0 |
| 20260506072021 | 73 | 119 | 1.7 | 2.6 | 0.00 | 0.00 | 0.00 | 38 | 1001.0 |
| 20260506071521 | 72 | 95 | 5.2 | 7.0 | 0.00 | 0.00 | 0.00 | 40 | 1001.0 |
| 20260506071020 | 72 | 175 | 1.7 | 1.7 | 0.00 | 0.00 | 0.00 | 38 | 1001.0 |
| 20260506070521 | 71 | 102 | 2.6 | 3.5 | 0.00 | 0.00 | 0.00 | 40 | 1001.0 |